Springfield, OH

2:46 PM EST on January 23, 2017 (GMT -0500)
Springfield-Beckley Municipal

Weather History for KSGH - February, 2014

Change the Weather History Date:

Sunday, February 2, 2014

  Actual Average (KFFO) Record (KFFO)
Temperature  
Mean Temperature 32 °F -  
Max Temperature 39 °F 37 °F 57 °F (2016)
Min Temperature 24 °F 20 °F 9 °F (2007)
Degree Days  
Heating Degree Days 34    
Moisture  
Dew Point 28 °F    
Average Humidity 93    
Maximum Humidity 100    
Minimum Humidity 80    
Precipitation  
Precipitation 0.20 in - - ()
Sea Level Pressure  
Sea Level Pressure 30.11 in    
Wind  
Wind Speed 9 mph (North)    
Max Wind Speed 14 mph    
Max Gust Speed -    
Visibility 5 miles    
Events Rain    
Averages and records for this station are not official NWS values.
T = Trace of Precipitation, MM = Missing Value Source: NWS Daily Summary

Daily Weather History Graph

Daily Weather History Graph

Search for Another Location

Airport or City:

Trip Planner

Search our weather history database for the weather conditions in past years. The results will help you decide how hot, cold, wet, or windy it might be!

Date:

Astronomy

Feb. 02, 2014 Rise Set
Actual Time 7:42 AM EST 5:56 PM EST
Civil Twilight 7:14 AM EST 6:24 PM EST
Nautical Twilight 6:41 AM EST 6:56 PM EST
Astronomical Twilight 6:10 AM EST 7:28 PM EST
Moon 9:08 AM EST (2/2) 9:38 PM EST (2/2)
Length of Visible Light 11h 10m
Length of Day
10h 13m
Waxing Crescent, 11% of the Moon is Illuminated
Feb 2
Waxing Crescent
Feb 6
First Quarter
Feb 14
Full
Feb 22
Last Quarter
Mar 1
New

Hourly Weather History & Observations

Time (EST) Temp. Windchill Dew Point Humidity Pressure Visibility Wind Dir Wind Speed Gust Speed Precip Events Conditions
12:46 AM 39.2 °F 33.0 °F 39.2 °F 100% 29.94 in 2.5 mi NW 9.2 mph - 0.01 in Rain Light Rain
12:56 AM 37.9 °F 32.1 °F 37.9 °F 100% 29.97 in 3.0 mi NW 8.1 mph - 0.01 in Rain Light Rain
1:06 AM 37.4 °F 32.1 °F 37.4 °F 100% 29.95 in 4.0 mi NW 6.9 mph - 0.00 in Rain Light Rain
1:24 AM 37.4 °F 34.9 °F 37.4 °F 100% 29.95 in 2.5 mi NW 3.5 mph - 0.00 in Rain Light Rain
1:56 AM 36.9 °F 30.1 °F 36.9 °F 100% 29.98 in 3.0 mi NNW 9.2 mph - 0.02 in Rain Light Rain
2:56 AM 34.9 °F 29.0 °F 34.9 °F 100% 29.98 in 4.0 mi NNW 6.9 mph - 0.02 in Rain Light Rain
3:56 AM 34.0 °F 28.8 °F 34.0 °F 100% 29.98 in 2.5 mi North 5.8 mph - 0.03 in Rain Light Rain
4:10 AM 33.8 °F 26.4 °F 33.8 °F 100% 29.97 in 4.0 mi North 9.2 mph - 0.00 in Rain Light Rain
4:56 AM 32.9 °F 25.3 °F 32.9 °F 100% 30.00 in 3.0 mi NNW 9.2 mph - 0.02 in Rain Light Rain
5:13 AM 33.8 °F 25.8 °F 32.0 °F 93% 29.98 in 2.5 mi North 10.4 mph - 0.01 in Rain Light Rain
5:26 AM 33.8 °F 27.7 °F 32.0 °F 93% 29.99 in 3.0 mi North 6.9 mph - 0.02 in Rain Light Rain
5:56 AM 32.9 °F 25.3 °F 32.0 °F 96% 30.03 in 3.0 mi North 9.2 mph - 0.03 in Rain Rain
6:56 AM 32.0 °F 22.1 °F 31.1 °F 96% 30.05 in 5.0 mi North 13.8 mph - 0.05 in   Overcast
7:03 AM 32.0 °F 23.0 °F 30.2 °F 93% 30.02 in 5.0 mi North 11.5 mph - 0.00 in Rain Light Freezing Rain
7:10 AM 32.0 °F 22.1 °F 30.2 °F 93% 30.02 in 5.0 mi North 13.8 mph - 0.01 in Rain Light Freezing Rain
7:17 AM 32.0 °F 22.5 °F 30.2 °F 93% 30.03 in 5.0 mi North 12.7 mph - 0.01 in Rain Light Freezing Rain
7:33 AM 30.2 °F 21.3 °F 30.2 °F 100% 30.03 in 5.0 mi North 10.4 mph - 0.01 in Rain Light Freezing Rain
7:37 AM 30.2 °F 21.3 °F 30.2 °F 100% 30.03 in 4.0 mi North 10.4 mph - 0.01 in Rain Light Freezing Rain
7:56 AM 31.1 °F 21.9 °F 30.0 °F 96% 30.07 in 4.0 mi North 11.5 mph - 0.01 in Rain Light Freezing Rain
8:21 AM 30.2 °F 22.6 °F 30.2 °F 100% 30.05 in 3.0 mi North 8.1 mph - 0.00 in   Overcast
8:35 AM 30.2 °F 21.9 °F 30.2 °F 100% 30.06 in 3.0 mi North 9.2 mph - 0.01 in   Overcast
8:56 AM 30.0 °F 20.5 °F 29.1 °F 96% 30.09 in 4.0 mi North 11.5 mph - 0.01 in   Overcast
9:56 AM 29.1 °F 20.0 °F 27.1 °F 92% 30.13 in 4.0 mi North 10.4 mph - 0.00 in   Mostly Cloudy
10:09 AM 28.4 °F 20.4 °F 28.4 °F 100% 30.11 in 4.0 mi North 8.1 mph - 0.00 in   Overcast
10:44 AM 28.4 °F 19.7 °F 26.6 °F 93% 30.11 in 4.0 mi NNW 9.2 mph - 0.00 in   Overcast
10:56 AM 29.1 °F 19.4 °F 28.0 °F 96% 30.14 in 4.0 mi NNW 11.5 mph - 0.00 in   Overcast
11:56 AM 29.1 °F 20.0 °F 27.1 °F 92% 30.15 in 4.0 mi NNW 10.4 mph - N/A   Overcast
12:56 PM 29.1 °F 19.4 °F 27.1 °F 92% 30.16 in 3.0 mi NNW 11.5 mph - N/A   Overcast
1:30 PM 28.4 °F 18.5 °F 26.6 °F 93% 30.11 in 2.5 mi NNW 11.5 mph - N/A   Overcast
1:37 PM 28.4 °F 19.1 °F 26.6 °F 93% 30.11 in 3.0 mi NNW 10.4 mph - N/A   Overcast
1:56 PM 28.0 °F 18.6 °F 26.1 °F 92% 30.14 in 3.0 mi NNW 10.4 mph - N/A   Overcast
2:56 PM 28.0 °F 18.1 °F 26.1 °F 92% 30.15 in 3.0 mi NNW 11.5 mph - N/A   Overcast
3:56 PM 27.1 °F 18.2 °F 25.2 °F 92% 30.22 in 5.0 mi NW 9.2 mph - N/A   Overcast
4:56 PM 27.1 °F 17.5 °F 24.1 °F 88% 30.21 in 6.0 mi NNW 10.4 mph - N/A   Overcast
5:04 PM 26.6 °F 16.2 °F 24.8 °F 93% 30.18 in 6.0 mi NNW 11.5 mph - N/A   Overcast
5:56 PM 26.1 °F 16.2 °F 23.0 °F 88% 30.23 in 7.0 mi NNW 10.4 mph - N/A   Overcast
6:56 PM 26.1 °F 16.2 °F 23.0 °F 88% 30.23 in 7.0 mi North 10.4 mph - N/A   Mostly Cloudy
7:46 PM 26.6 °F 17.5 °F 21.2 °F 80% 30.20 in 7.0 mi North 9.2 mph - N/A   Scattered Clouds
7:56 PM 25.2 °F 15.7 °F 22.1 °F 88% 30.23 in 8.0 mi North 9.2 mph - N/A   Partly Cloudy
8:31 PM 26.6 °F 18.2 °F 21.2 °F 80% 30.21 in 7.0 mi North 8.1 mph - N/A   Mostly Cloudy
8:48 PM 26.6 °F 17.5 °F 21.2 °F 80% 30.21 in 7.0 mi North 9.2 mph - N/A   Scattered Clouds
8:56 PM 26.1 °F 18.4 °F 22.1 °F 85% 30.25 in 7.0 mi North 6.9 mph - N/A   Partly Cloudy
9:56 PM 26.1 °F 16.8 °F 22.1 °F 85% 30.24 in 7.0 mi North 9.2 mph - N/A   Scattered Clouds
10:09 PM 26.6 °F 18.2 °F 21.2 °F 80% 30.20 in 8.0 mi NNE 8.1 mph - N/A   Mostly Cloudy
10:30 PM 24.8 °F 15.3 °F 21.2 °F 86% 30.19 in 8.0 mi NNE 9.2 mph - N/A   Scattered Clouds
10:56 PM 25.2 °F 16.5 °F 22.1 °F 88% 30.25 in 7.0 mi North 8.1 mph - N/A   Mostly Cloudy
11:03 PM 24.8 °F 16.1 °F 21.2 °F 86% 30.20 in 8.0 mi North 8.1 mph - N/A   Mostly Cloudy
11:39 PM 24.8 °F 14.6 °F 21.2 °F 86% 30.19 in 7.0 mi NNE 10.4 mph - N/A   Mostly Cloudy
11:56 PM 25.2 °F 16.5 °F 21.0 °F 84% 30.24 in 7.0 mi NNE 8.1 mph - N/A   Mostly Cloudy